Location: ??????????
(54.8537°N, 38.8755°E)
Time: 00:39:25
(UTC+00:00)

Transit 4A - Pass Details

Date: 22 September 2024
Orbit: 865 x 977 km, 66.8° (Epoch: 09 October)

Event Time Altitude Azimuth Distance (km) Brightness Sun altitude
Exits shadow 23:08:00 62° 89° (E) 1,015 8.1 -30.8°
Drops below altitude 10° 23:13:22 10° 45° (NE) 2,628 11.1 -30.4°
Sets 23:15:57 0° 43° (NE) 3,592 12.1 -30.1°
